Погода в Новониколаевке

Украина / Запорожская область     47°06′22″N   35°42′47″E
темп.,
°C
ветер,
м/с
пор.,
м/с
влажн.,
%
обл.,
%
осадки,
мм/ч
давл.,
гПа
погр.,
м
16 октября, сб
сб1600:00+9всв495351 0.0 1021155
03:00+8св495838 0.0 1020152
06:00+8всв496562 0.0 1018154
09:00+12в5959100 0.0 1018308
12:00+17в4540100 0.0 1016641
15:00+19всв4435100 0.0 1015910
18:00+15в2245100 0.0 101517
21:00+13св2252100 0.0 101617
17 октября, вс
вс1700:00+13ссв3451100 0.0 101557
03:00+12ссв3657100 0.0 1015113
06:00+13ссв3753100 0.0 1015182
09:00+15ссв474824 0.0 1016352
12:00+19св4535100 0.0 10161029
15:00+20ссв443738 0.0 10151543
18:00+15с475024 0.0 1016143
21:00+12ссв486070 0.0 1017177
18 октября, пн
пн1800:00+13с3653100 0.0 1017238
03:00+13с3654100 0.0 1017223
06:00+12ссз476474 0.0 1018284
09:00+11с56625 0.0 1019332
12:00+16сз44455 0.0 1019954
15:00+16сз5536100 0.0 10181303
18:00+12сз364847 0.0 1018140
21:00+9зсз365714 0.0 1019107
19 октября, вт
вт1900:00+8сз3364100 0.0 101944
03:00+8зсз2361100 0.0 101958
06:00+9зюз2556100 0.0 1019145
09:00+10зюз4754100 0.0 1018410
12:00+10зсз5770100 0.3 10181210
15:00+8сз5783100 1.5 1019956
18:00+9ссз597389 0.3 1021694
21:00+6сз512701 0.3 1023317
20 октября, ср
ср2000:00+4сз411610 0.0 1024241
03:00+3ссз49740 0.0 1026188
06:00+2ссз38785 0.0 1028161
09:00+4с476171 0.0 1029463
12:00+8ссз56435 0.0 10301257
15:00+10сз45375 0.0 10291427
18:00+6с224717 0.0 102914
21:00+5юв225087 0.0 102920